Location: Burland Observatory
(39.4088°N, 105.4217°W)
Time: 08:30:46
(UTC-06:00)

Envisat - Visible Passes

Search period start: 19 October 2019 00:00
Search period end: 29 October 2019 00:00
Orbit: 764 x 766 km, 98.1° (Epoch: 19 October)

Date Brightness Start Highest point End Pass type
(mag) Time Alt. Az. Time Alt. Az. Time Alt. Az.
19 Oct 3.1 18:47:55 10° SSE 18:52:52 58° ENE 18:57:51 10° N visible
19 Oct 6.0 20:29:20 10° SW 20:32:15 15° W 20:35:11 10° NW visible
20 Oct 4.7 19:50:36 10° SSW 19:55:11 34° W 19:59:48 10° NNW visible
21 Oct 3.1 19:13:15 10° S 19:18:19 80° WSW 19:23:25 10° NNW visible
22 Oct 3.3 18:36:51 10° SE 18:41:39 45° ENE 18:46:29 10° N visible
22 Oct 5.6 20:17:16 10° SW 20:20:52 20° W 20:24:31 10° NW visible
23 Oct 6.1 06:47:50 10° NE 06:51:04 17° E 06:54:17 10° SE visible
23 Oct 4.2 19:39:04 10° S 19:43:52 44° W 19:48:43 10° NNW visible
24 Oct 2.9 19:02:00 10° SSE 19:07:04 81° ENE 19:12:09 10° N visible
24 Oct 6.3 20:45:49 10° W 20:46:39 10° W 20:47:30 10° W visible
25 Oct 5.3 20:05:24 10° SSW 20:09:31 25° W 20:13:40 10° NW visible
26 Oct 6.4 06:37:22 10° ENE 06:39:41 13° E 06:41:59 10° ESE visible
26 Oct 3.7 19:27:37 10° S 19:32:34 57° W 19:37:34 10° NNW visible
27 Oct 3.0 18:50:50 10° SSE 18:55:49 64° ENE 19:00:51 10° N visible
27 Oct 6.0 20:32:43 10° WSW 20:35:16 14° W 20:37:48 10° WNW visible
28 Oct 4.8 19:53:42 10° SSW 19:58:11 31° W 20:02:41 10° NNW visible
